星链-36902(STARLINK-36902)

导读

STARLINK-36902(NORAD编号68043)是美国SpaceX公司星链(Starlink)项目的低轨卫星,属于Starlink V1.0平台,用于提供全球卫星互联网服务,覆盖全球范围,能为偏远地区提供高速低延迟网络,也可为军事、航空等领域提供通信支持。该卫星于2024年12月8日发射,截至2026年4月已在轨飞行约508天,当前轨道倾角约43.001°,近地点约355公里,远地点约357公里,运行周期约91.66分钟,目前处于在轨状态。作为SpaceX大规模星座的一员,它是SpaceX调整轨道高度、提升太空安全计划中的一员,旨在降低碰撞风险,减少太空碎片威胁。

基本信息
目录编号:
68043
目录名称:
STARLINK-36902
国际标识:
2026-041D
轨道中心:
EARTH
卫星名称:
星链-36902
卫星全名:
星链-36902(STARLINK-36902)
卫星状态:
在轨 (已飞行148 天)
发射日期:
2026-03-02 UTC
国别 :
美国 (US)
星等 :
--
轨道信息
数据来源 国际轨道数据
星历时间: 2026-07-27T11:36:03+0800
22小时前
查看轨道信息
半长轴: 6840.794km
偏心率: 0.0001176
轨道倾角: 53.160°
近地点辐角 105.893°
升交点赤经 120.436°
平近点角 254.220°
近地点: 461.852km
远地点: 463.462km
周期: 93.847分钟
每日圈数: 15.344157
详细信息
固有亮度:
5
最大亮度:
2.5
卫星平台:
Starlink V1.0
覆盖范围:
全球
运营商:
太空探索技术公司
运营商所在国:
美国
制造商(研发单位):
太空探索技术公司
制造商所在国:
美国
使用方式:
暂无
卫星简介
Starlink 计划是 SpaceX 推出的全球卫星互联网项目,通过发射低轨道卫星,为全球尤其是偏远地区提供高速、低延迟的互联网服务。自 2019 年起,Starlink 已部署数千颗卫星,旨在缩小全球数字鸿沟,推动互联网普及。该项目还为军事、航空等行业提供通信支持,带来广泛经济效益。
2D轨道图
3D轨道图
轨道高度分析图
轨道倾角分析图
轨道综合分析图
查看轨道综合分析图